Wind_Speed
53 53 53 51 50 50 50 50 50 49 48 47 45 43 42 41 41 41 42 42 42 42 42 41 39 37 36 36 36 36 36 37 38 39 40 41 41 42 42 42 42 41 41 41 41 42 44 46 50 54 57 60 62 63 62 61 60 59 58 57 57 57 57 56 56 56 54 53 51 49 46 44 42 41 39 36 33 33 34 35 33 29 28 29 28
54 54 52 50 47 46 45 45 45 44 45 45 45 44 43 42 42 42 42 43 43 44 44 45 45 44 42 40 38 37 36 36 37 37 38 39 40 42 43 43 44 44 43 43 42 42 43 44 46 49 54 58 60 61 62 61 61 60 60 59 58 58 58 57 57 57 57 55 53 51 48 46 44 42 41 38 36 36 36 36 34 31 29 29 28
49 49 48 46 45 44 43 43 42 42 42 43 43 44 44 44 44 44 44 44 44 45 45 45 46 46 46 45 44 43 41 40 38 38 38 39 40 41 42 43 44 44 44 44 44 44 44 44 45 47 50 53 56 59 61 61 61 61 61 60 60 59 58 58 58 58 58 57 55 53 51 48 45 43 42 40 39 38 38 37 36 34 32 30 29
41 41 41 41 41 42 42 43 43 43 43 43 44 44 45 45 45 46 46 45 45 45 45 46 46 47 47 47 47 47 46 45 44 42 40 40 41 42 43 43 44 44 44 44 45 44 45 45 46 47 49 50 52 56 60 61 61 62 62 61 61 60 59 59 59 59 59 60 58 55 52 50 48 45 44 43 42 41 40 39 38 36 34 32 30
37 37 37 37 37 39 40 42 43 43 43 43 43 44 44 45 45 45 46 46 47 47 47 48 49 49 50 50 51 50 49 49 48 47 46 44 43 43 45 46 47 46 46 45 45 45 45 46 46 47 49 50 51 54 57 60 61 62 62 62 62 61 60 60 60 60 61 61 60 57 55 53 51 49 46 44 43 43 42 41 40 38 36 34 32
36 36 36 36 36 37 38 40 41 43 44 44 44 44 44 45 45 46 47 47 48 48 49 50 51 52 53 53 54 54 54 52 51 50 50 49 48 46 46 47 48 50 50 50 48 47 46 46 46 46 48 49 50 53 55 58 60 62 63 63 62 61 61 60 60 61 62 62 62 60 58 56 54 52 49 46 45 45 44 44 43 41 38 36 34
36 36 36 37 37 37 38 39 40 41 43 45 46 46 47 47 48 49 49 50 51 51 52 52 53 54 54 55 56 56 57 56 55 53 52 51 51 50 49 48 48 49 51 53 53 52 50 48 47 47 47 48 49 52 55 57 59 61 62 63 64 62 61 61 61 62 63 63 64 62 60 59 57 54 51 49 48 48 48 47 45 42 40 37 35
38 38 38 38 39 39 40 40 41 42 43 44 46 47 48 49 51 52 53 54 56 56 57 58 58 57 57 56 56 56 57 57 58 57 56 54 54 53 53 52 51 50 50 51 53 55 56 55 52 50 48 48 48 50 52 55 58 60 61 63 64 64 63 61 61 62 64 65 65 64 63 61 59 57 55 53 52 51 50 48 46 44 41 39 38
39 39 40 40 41 41 42 42 43 44 45 46 47 49 51 52 54 55 57 58 59 60 60 61 61 61 60 58 57 56 56 56 57 58 58 58 57 56 56 55 54 53 52 51 51 53 55 58 58 57 54 51 50 50 51 53 56 59 60 62 64 65 64 63 62 62 64 65 67 67 66 65 62 61 58 56 54 51 49 48 48 46 44 43 42
39 40 40 41 41 42 42 42 43 44 45 46 47 49 50 52 54 56 58 59 60 61 61 61 61 61 61 60 59 58 57 56 56 56 57 58 59 59 59 58 57 57 56 55 54 53 53 55 57 59 60 58 55 53 52 52 53 55 58 62 64 65 65 65 64 64 64 66 67 68 69 68 65 62 59 55 54 52 50 51 51 49 48 48 47
43 42 42 42 42 43 43 44 44 44 45 45 46 47 48 49 51 52 54 56 57 58 60 60 61 61 61 61 61 60 59 58 58 57 57 57 58 60 61 61 60 59 59 58 57 56 55 55 55 57 59 61 60 59 56 54 54 54 56 60 63 65 66 67 66 66 66 66 67 69 70 69 67 63 60 57 56 55 54 53 52 52 53 52 51
47 47 47 46 46 46 46 46 47 47 47 48 48 49 49 50 50 51 53 54 56 57 59 60 61 61 62 62 62 62 62 61 61 60 59 58 57 58 61 62 63 62 61 60 60 59 58 58 57 57 57 58 60 61 61 59 57 56 56 57 60 63 65 67 67 67 68 68 69 70 70 69 68 65 62 61 59 58 56 55 55 56 57 55 54
48 49 49 49 49 49 49 50 51 51 52 52 53 53 54 54 55 55 56 57 58 59 60 62 63 63 63 64 64 64 64 64 63 63 63 61 59 58 59 61 64 65 64 63 62 61 61 60 59 59 59 59 59 59 60 61 61 60 58 57 59 61 63 66 68 68 69 70 71 71 70 70 69 67 64 63 61 59 58 57 57 58 59 59 57
48 49 49 50 51 52 53 54 55 56 57 57 58 59 59 60 61 62 63 63 63 64 64 65 66 66 66 67 67 67 67 66 66 66 66 65 63 61 59 60 62 65 66 66 65 64 63 62 62 61 60 60 60 59 59 59 61 62 61 60 59 60 62 65 67 69 70 71 72 72 70 70 70 68 66 65 64 61 60 60 59 59 60 60 58
49 49 50 51 52 54 55 57 58 59 61 62 63 64 65 66 67 68 70 70 70 70 70 70 70 70 71 71 71 72 70 69 68 68 68 68 67 65 63 62 62 63 65 66 67 66 65 64 64 64 62 61 61 61 60 59 59 61 62 62 61 60 61 63 66 69 71 72 72 72 71 71 71 70 69 68 67 65 64 62 60 58 58 61 63
50 51 52 53 54 55 57 59 61 62 64 66 68 69 71 72 73 75 76 77 77 77 77 77 76 76 75 75 75 75 74 72 70 69 69 69 70 70 69 67 65 65 65 66 66 67 67 66 66 65 65 63 62 62 62 60 59 59 60 62 62 62 62 62 64 68 71 73 73 73 72 73 73 72 72 72 71 70 69 67 64 63 63 66 68
52 53 54 54 56 57 60 62 64 66 68 70 72 74 76 78 79 80 82 82 82 82 81 81 80 80 79 78 77 76 75 73 72 71 70 70 70 71 72 72 71 69 67 66 66 66 67 67 67 66 66 65 64 63 62 61 61 60 59 59 61 62 63 62 62 65 69 72 74 75 75 76 76 76 76 76 75 75 74 72 71 70 70 71 72
53 54 55 56 58 60 62 65 67 70 72 74 77 79 81 82 83 84 84 84 84 84 83 83 82 81 80 79 78 77 76 74 71 71 71 70 71 72 73 74 75 75 73 70 68 67 66 66 66 66 67 66 65 64 63 62 62 62 60 59 59 61 62 61 61 63 66 69 72 74 77 79 79 79 79 80 80 80 79 78 75 74 73 73 73
53 54 56 58 60 63 66 68 71 74 77 79 81 83 83 84 84 84 84 84 84 83 83 83 82 82 81 81 80 80 79 77 74 72 71 70 70 72 74 75 76 77 76 74 72 69 68 66 65 64 65 66 65 64 64 64 63 63 61 59 60 60 59 59 60 61 62 65 69 72 75 78 80 81 82 83 83 84 84 82 79 77 76 75 74
53 55 58 61 63 66 69 72 75 78 80 82 83 83 83 83 82 82 82 82 82 83 83 84 85 85 84 84 84 83 82 81 79 76 75 73 72 72 73 76 78 78 78 77 75 73 71 69 67 64 62 63 63 63 64 64 64 64 62 61 61 59 56 57 59 59 59 61 65 69 72 75 77 79 81 82 84 85 86 85 83 81 78 77 76
55 57 61 63 66 70 73 76 79 80 81 82 81 81 80 80 80 81 81 82 83 83 84 85 87 87 86 86 85 83 81 80 79 77 76 75 74 73 74 76 77 78 79 78 77 75 73 72 70 67 62 60 60 61 62 63 64 64 64 64 62 58 56 57 58 57 58 59 61 65 69 72 74 77 79 80 82 83 85 86 85 84 81 79 79
57 60 63 66 70 73 76 78 79 79 79 79 79 78 78 79 79 80 81 82 84 85 86 88 89 88 85 82 80 76 73 72 71 70 70 71 72 73 74 75 75 76 78 79 78 77 75 73 72 70 65 61 58 58 59 61 63 64 65 64 62 57 56 57 57 57 58 58 58 61 65 69 72 74 76 78 79 80 82 83 84 83 82 82 82
60 63 66 70 73 76 77 77 76 76 76 76 77 77 78 78 79 81 83 85 86 87 87 85 83 79 74 69 67 66 64 64 65 64 64 65 66 68 71 73 74 75 76 78 78 77 77 75 73 71 68 64 60 58 57 58 61 64 65 64 62 58 56 57 57 57 58 57 57 59 61 65 70 72 73 75 76 77 79 81 81 82 83 83 83
63 66 69 73 74 74 73 72 72 73 74 75 76 78 79 81 82 83 83 83 81 79 75 71 68 65 62 60 60 60 61 61 61 61 61 61 61 62 65 68 71 73 74 75 76 76 76 76 75 73 71 67 64 60 58 58 59 62 65 65 62 59 57 57 57 57 57 58 58 57 57 60 66 70 71 72 73 75 77 78 80 81 82 83 83
65 69 72 72 71 70 69 70 71 73 74 76 78 81 82 82 80 77 73 70 67 64 61 59 59 58 58 59 58 58 59 59 59 59 59 58 57 58 60 63 66 69 71 72 73 73 74 75 75 74 73 71 67 64 61 60 59 60 61 63 62 60 58 58 58 57 57 57 57 56 55 56 60 65 69 70 71 73 74 75 77 79 80 82 83
68 70 70 68 67 67 68 70 72 75 77 80 82 81 77 72 67 63 59 57 56 55 55 56 57 57 57 58 57 56 56 56 56 56 55 54 53 52 54 57 61 64 68 70 71 71 71 71 72 73 73 72 70 68 64 61 60 59 59 60 61 61 59 59 59 59 57 56 56 55 54 54 56 61 66 69 70 71 72 73 74 76 78 80 82
69 67 65 64 64 66 69 72 75 78 80 80 75 69 63 58 55 53 51 51 51 52 53 54 55 56 55 54 53 52 51 51 52 52 51 50 49 48 47 49 52 56 60 63 65 67 68 68 68 70 71 72 71 69 66 63 61 60 59 59 60 60 59 58 59 59 57 55 54 54 53 53 55 58 61 65 67 69 70 71 72 74 76 78 80
65 62 61 62 64 67 71 74 77 79 77 70 61 55 52 49 48 47 47 47 49 50 51 52 52 52 52 51 50 49 48 47 48 46 45 45 45 44 42 42 44 48 52 55 55 57 61 64 66 67 69 71 71 69 67 65 63 61 59 58 58 59 58 56 55 58 58 56 53 53 53 54 55 56 57 60 62 64 65 67 69 71 73 75 77
60 58 59 61 64 68 72 74 77 75 67 57 50 47 46 45 46 46 45 44 46 47 48 49 49 49 50 50 49 49 47 47 47 46 43 41 40 39 39 37 37 40 45 49 49 49 53 59 64 66 68 69 69 68 67 65 63 62 59 58 57 57 56 54 53 55 57 56 54 53 54 54 55 55 55 56 57 58 60 62 64 66 68 71 73
56 56 57 60 64 68 71 73 73 67 56 48 46 44 43 43 43 44 43 41 41 42 42 43 44 45 47 48 48 49 49 48 48 47 44 41 39 37 37 36 35 35 37 39 43 47 51 56 60 63 66 68 68 67 66 64 63 61 59 56 55 56 55 53 51 51 54 56 55 53 53 54 55 55 55 54 54 55 57 58 60 62 64 66 68
54 55 56 59 63 66 69 71 69 59 49 45 44 44 44 43 40 39 38 38 37 36 37 38 40 41 44 46 47 47 48 47 46 45 43 41 38 36 35 35 35 36 35 34 38 45 50 54 57 60 62 65 67 66 64 62 61 59 57 55 53 53 54 52 49 48 51 54 54 53 52 52 53 55 55 55 54 54 55 57 58 60 62 63 64
52 53 55 59 62 64 66 68 65 55 46 43 43 43 45 44 40 37 35 34 33 33 34 35 37 38 40 42 44 45 46 46 45 43 40 38 36 34 32 32 32 33 34 34 39 46 49 51 54 56 57 60 64 63 62 60 59 57 54 52 51 51 51 50 47 46 48 51 52 53 52 51 51 53 55 55 54 54 54 55 56 57 59 59 59
51 52 54 58 60 61 64 65 62 53 45 42 42 42 43 43 42 39 35 33 31 30 30 32 35 37 38 39 41 42 42 42 41 39 36 34 32 30 29 29 28 29 31 35 42 47 49 49 51 53 52 54 56 57 57 56 55 53 50 49 49 49 49 47 45 44 46 48 50 51 51 49 49 51 52 52 52 52 52 52 53 54 55 55 55
49 50 53 56 58 59 61 62 60 53 45 42 41 41 40 40 40 40 38 36 32 29 27 29 32 35 37 38 39 39 38 37 36 34 31 29 26 25 25 25 25 25 28 34 40 45 46 47 49 50 50 49 49 49 50 51 50 48 46 46 47 47 47 45 43 42 43 45 46 48 49 48 48 49 49 48 48 48 49 49 50 51 52 52 53
47 48 51 54 55 56 57 59 58 53 46 41 40 39 39 38 38 38 38 37 36 33 31 31 32 34 36 38 39 38 37 35 33 29 26 22 19 19 20 22 21 21 22 27 33 39 43 44 45 45 45 44 43 44 44 44 44 43 42 43 44 45 45 44 41 41 41 42 42 44 45 46 47 46 45 44 44 45 45 45 46 48 49 50 51
45 47 50 52 52 53 54 55 56 53 47 42 39 38 38 38 38 38 37 37 36 35 33 33 33 34 35 36 38 37 36 33 30 26 22 18 15 14 16 19 20 20 19 20 24 31 37 39 39 37 36 35 37 38 37 37 38 38 38 40 41 42 42 41 40 39 39 39 39 41 43 44 44 43 41 41 40 40 41 41 42 44 46 47 47
43 46 49 50 50 50 50 51 53 52 48 43 40 39 38 37 37 37 37 36 36 35 33 33 34 34 34 35 36 36 34 30 28 25 22 19 15 14 15 17 18 20 21 19 19 24 29 31 31 30 28 28 29 29 31 33 34 34 36 38 39 39 39 39 38 37 36 35 36 38 39 40 40 38 38 37 36 37 37 38 38 39 41 42 43
41 45 48 49 49 49 48 48 49 50 48 44 40 38 37 36 36 36 35 35 35 35 34 33 33 35 35 35 35 34 32 29 27 26 25 23 20 17 18 20 20 21 21 20 19 20 22 22 22 23 22 22 24 25 28 30 32 33 35 35 35 35 36 36 36 34 32 32 33 34 35 35 35 34 33 33 33 34 35 35 36 37 38 39 40
40 42 45 46 46 46 46 46 46 47 47 45 41 38 36 35 35 34 34 34 34 34 34 32 32 33 34 35 35 34 31 28 27 28 27 25 23 21 21 22 20 19 19 18 16 14 14 14 16 17 17 18 22 26 27 28 30 32 32 31 31 32 34 33 33 31 31 31 31 31 31 30 29 28 29 30 31 32 32 33 34 35 36 37 38
39 40 42 43 43 43 43 44 44 45 45 44 42 39 36 35 33 33 32 31 31 32 33 33 32 31 32 33 34 34 32 30 28 28 27 25 22 19 17 15 13 13 14 15 12 8 8 10 11 12 12 16 22 26 28 28 29 28 27 26 27 29 29 29 29 28 28 27 27 26 26 26 26 26 28 29 29 29 29 30 31 32 33 34 34
38 39 39 40 40 40 40 41 41 42 42 42 41 39 36 35 33 32 31 30 29 29 30 31 31 30 30 31 31 32 32 31 29 27 26 24 22 17 10 6 7 9 8 8 9 8 8 10 11 12 15 21 26 27 27 26 24 23 23 24 24 24 24 25 26 26 25 24 24 23 23 24 24 26 28 28 26 26 27 28 29 30 31 32 33
37 38 38 38 38 38 38 38 38 39 39 39 39 38 36 35 34 32 31 30 29 28 28 27 27 27 27 27 27 28 28 27 26 25 24 23 23 18 9 5 6 6 5 4 5 6 8 11 15 18 21 24 25 23 21 19 18 18 19 20 20 21 22 23 24 24 23 22 21 22 22 23 24 26 27 26 24 25 27 29 30 30 31 31 32
36 37 36 36 36 36 36 36 36 36 36 37 37 37 36 35 34 33 32 31 30 30 28 27 26 26 25 26 26 26 26 25 24 22 21 20 20 19 15 10 9 8 7 7 7 8 11 15 18 20 22 20 18 16 15 14 14 15 15 16 17 19 21 23 24 23 22 21 21 22 23 25 26 26 26 24 23 23 25 27 29 29 30 31 32
35 35 34 34 34 34 35 35 34 34 34 34 35 36 36 35 34 34 33 32 31 31 30 29 28 27 27 26 27 27 27 26 23 21 19 18 17 17 17 15 11 10 10 10 11 12 15 16 16 16 16 14 11 10 10 10 11 13 15 16 18 19 20 22 23 22 21 22 23 24 25 26 26 24 23 22 22 23 24 25 27 28 30 31 32
34 33 32 32 32 32 32 33 33 32 32 32 33 34 35 36 35 35 34 33 32 32 31 31 31 30 29 29 29 29 29 27 26 23 21 18 17 16 15 15 13 11 10 10 12 14 15 15 14 13 12 8 5 5 7 10 13 14 15 15 17 18 19 21 22 22 22 23 24 25 26 26 24 22 21 21 22 22 22 23 25 26 27 28 28
33 31 30 30 30 31 31 31 31 31 31 31 32 33 34 35 36 36 36 35 34 34 33 33 32 32 32 31 31 30 29 27 26 25 22 20 18 17 15 14 13 12 11 11 12 13 13 13 12 9 5 2 3 7 10 12 13 12 12 13 16 18 20 22 22 22 22 23 24 26 25 24 21 20 21 22 22 22 22 23 23 23 24 24 24
31 29 28 28 28 29 30 31 31 31 31 31 31 32 33 34 35 36 36 36 36 35 34 33 33 32 32 31 30 29 28 26 24 22 21 19 17 16 15 14 13 12 12 11 11 11 11 10 7 3 5 8 9 11 13 13 12 11 11 12 15 18 20 20 20 20 21 23 26 25 23 21 20 20 21 21 21 21 22 22 22 21 22 22 23
28 27 26 26 27 28 29 29 30 30 30 30 31 31 32 33 34 35 36 36 36 35 34 33 32 31 31 31 30 29 28 26 23 22 20 19 17 16 15 14 12 11 10 9 9 8 7 6 5 7 10 12 14 15 15 13 10 8 8 10 13 16 17 17 18 19 21 25 26 25 21 18 18 19 19 19 19 20 20 21 21 21 21 22 22
26 25 24 24 25 26 27 28 28 29 29 29 30 30 31 32 33 34 35 36 36 35 34 33 32 30 30 30 30 29 28 26 24 22 21 19 18 16 15 13 12 10 9 7 6 4 3 4 6 8 10 12 13 12 10 7 5 4 4 7 10 13 14 15 17 19 22 24 25 23 21 19 18 18 18 18 18 19 19 19 19 20 20 21 22
24 23 22 22 23 24 25 26 27 27 28 28 28 29 30 31 32 33 33 34 34 34 33 32 31 30 28 28 27 27 26 25 24 21 19 18 17 16 15 14 13 12 10 8 6 4 2 2 4 6 7 8 7 7 6 5 4 3 4 6 8 10 11 13 16 19 22 23 23 21 19 18 18 17 17 17 17 17 18 18 18 19 20 21 21
22 21 21 21 22 22 23 24 25 25 26 27 27 27 28 29 30 30 31 31 31 31 31 30 29 28 27 27 26 26 25 24 22 19 17 16 16 15 15 15 14 14 13 11 10 9 7 7 6 6 6 6 6 5 5 4 4 4 5 6 7 8 9 12 14 17 18 18 17 16 16 15 15 15 15 15 16 16 17 18 18 19 20 20 20
Wind_Direction
295 295 296 295 295 294 292 292 293 294 294 294 293 293 292 291 291 292 293 294 295 295 294 294 292 289 286 284 284 285 285 285 284 283 282 281 280 279 278 277 277 276 276 275 273 271 269 267 266 264 260 257 255 254 252 251 250 249 249 250 252 253 253 253 253 254 253 252 252 252 252 252 254 256 257 257 257 258 261 263 263 263 264 266 267
292 293 293 292 292 291 290 289 289 288 288 288 289 290 290 291 290 290 291 291 292 293 293 294 295 295 293 291 288 286 284 283 282 281 280 278 276 275 274 274 274 274 274 274 274 272 270 268 267 265 263 260 257 255 253 251 250 249 249 249 250 251 253 253 252 253 253 253 252 252 251 250 251 253 255 256 255 256 258 259 260 261 261 262 264
291 291 291 290 290 290 288 287 286 285 285 285 285 286 288 289 290 290 289 288 288 288 289 290 291 293 294 294 294 292 290 287 284 281 279 277 274 272 271 271 271 271 272 273 273 273 272 270 268 266 265 263 261 258 255 252 250 249 249 248 249 249 250 251 251 252 253 253 252 251 251 250 250 250 252 253 252 252 254 256 257 258 258 260 262
292 292 291 291 290 290 289 288 287 286 286 286 287 287 288 288 288 289 289 289 289 288 287 287 288 289 290 291 292 293 292 291 289 286 282 279 276 273 271 270 270 270 270 271 272 273 272 271 270 268 265 264 263 261 258 254 251 250 249 249 249 249 248 248 249 250 251 252 252 251 250 250 250 249 249 249 250 250 252 253 255 256 257 259 260
295 294 293 291 289 288 288 288 288 289 289 289 290 290 290 290 289 289 288 289 289 289 289 288 288 288 288 289 289 290 291 290 290 289 287 283 280 276 273 271 270 270 269 269 270 271 271 271 270 269 267 265 263 261 260 258 255 252 251 250 250 250 249 247 246 247 249 251 251 251 250 249 248 248 247 247 248 249 250 251 253 255 255 256 258
295 294 293 291 289 288 287 287 287 288 289 291 291 291 290 289 289 288 287 286 286 287 287 288 288 288 288 288 288 288 289 289 288 288 287 286 284 281 277 274 272 270 269 269 268 268 269 270 270 270 269 267 265 262 260 259 257 255 254 252 251 250 249 248 246 246 246 248 250 250 249 248 248 248 247 247 247 248 249 250 251 252 253 254 257
296 296 296 295 294 292 291 289 288 288 288 290 291 292 292 292 291 290 289 288 287 287 287 287 288 288 288 288 287 286 286 287 287 286 285 284 284 283 281 278 275 272 271 269 269 268 267 267 268 269 269 268 267 264 262 259 258 257 256 255 253 251 249 248 247 245 245 246 248 249 249 248 248 248 247 247 246 246 246 246 248 250 252 254 256
300 300 301 300 299 298 297 296 294 293 291 291 291 291 292 293 293 293 293 292 291 290 289 288 288 288 288 288 287 286 285 284 284 284 284 282 282 281 281 280 278 275 273 271 270 269 268 267 266 267 267 267 267 266 264 261 258 257 256 256 255 253 251 249 247 246 245 245 246 247 247 247 247 246 245 244 243 243 244 246 248 250 252 254 255
301 302 303 303 303 302 301 300 299 298 297 295 294 293 292 291 291 291 292 291 291 291 290 289 288 287 287 286 284 284 283 282 282 282 282 281 280 279 278 278 278 277 275 273 271 270 269 268 267 266 266 265 265 265 264 262 260 257 256 255 254 254 253 251 248 246 245 245 245 245 246 245 245 244 243 242 242 244 246 247 248 249 250 251 252
302 303 303 303 303 302 301 301 300 300 299 299 297 295 294 292 291 290 290 289 289 288 288 287 287 287 286 285 283 282 281 280 281 281 281 280 279 278 277 276 275 275 274 274 272 271 271 270 269 267 266 265 264 264 264 263 261 259 257 254 253 253 253 252 249 247 245 244 244 245 245 245 244 243 242 243 243 244 245 245 246 247 248 249 249
304 304 303 303 302 301 301 301 300 300 299 299 298 297 296 295 294 293 291 290 289 288 288 287 287 287 286 285 284 282 281 280 279 280 280 280 280 279 278 276 274 273 272 272 272 271 271 270 270 269 268 266 264 263 264 263 262 260 257 255 253 252 252 252 251 249 246 244 243 244 245 245 244 243 243 243 244 244 244 244 245 246 247 248 249
307 306 305 305 304 303 302 301 301 301 300 300 299 298 297 297 296 295 295 294 292 291 290 289 288 288 287 286 284 283 282 280 279 279 279 279 280 280 278 277 275 273 272 271 270 270 270 269 269 269 269 269 267 265 263 262 262 261 259 256 254 252 251 251 251 250 248 246 244 243 244 245 245 243 242 242 243 243 244 244 244 246 247 247 248
307 307 306 306 305 304 303 303 302 302 302 301 300 299 298 297 297 296 295 294 293 292 291 290 290 289 288 287 286 284 283 281 280 280 279 279 279 279 278 276 276 274 273 271 270 269 268 268 268 267 267 268 269 268 265 262 261 261 260 258 255 252 251 250 249 250 249 248 246 244 243 244 244 243 243 243 244 244 244 244 244 246 247 248 249
306 306 305 305 305 305 305 304 304 303 303 302 301 300 299 298 297 296 295 293 292 291 290 289 288 288 288 287 286 285 284 283 282 281 280 279 278 278 276 275 274 273 273 272 271 269 268 267 266 265 265 264 266 267 267 265 262 260 260 259 257 254 251 250 248 248 248 248 247 246 244 243 243 243 244 244 244 244 244 244 245 248 250 251 252
305 304 304 304 304 304 304 304 303 303 303 302 301 301 300 299 298 297 296 295 293 292 290 289 288 287 287 287 286 285 284 283 282 281 280 279 278 277 275 273 271 271 271 271 270 269 268 267 266 265 263 262 262 263 264 264 263 261 259 259 258 256 253 250 248 248 247 248 248 247 245 244 243 243 244 244 244 244 244 244 245 247 249 251 251
304 304 304 304 304 304 303 303 302 302 302 302 301 301 300 300 299 298 298 297 295 294 293 292 290 289 288 287 285 284 283 282 281 279 278 277 277 276 275 273 271 268 267 268 268 269 268 267 266 264 263 261 260 259 261 261 261 261 260 258 257 257 256 253 250 248 247 246 246 246 245 244 243 243 243 244 243 243 243 242 242 242 243 244 246
303 303 304 304 304 303 303 303 303 303 302 302 301 301 301 300 300 300 299 298 296 295 294 293 291 290 289 287 285 284 282 280 278 276 274 273 272 272 272 272 271 269 266 264 265 266 267 267 266 264 262 261 259 258 258 259 259 259 259 258 257 256 255 255 253 251 248 246 245 244 244 244 243 242 242 243 244 243 243 242 242 242 242 242 244
302 303 303 303 303 303 303 303 303 302 302 302 301 301 301 300 300 299 298 298 296 295 294 293 292 290 289 288 286 284 282 280 277 275 272 270 269 268 267 267 268 268 267 264 262 263 264 265 266 265 263 261 259 258 257 258 259 258 257 257 257 255 255 255 255 253 250 247 245 243 243 244 244 243 242 242 243 243 243 243 243 243 242 243 244
301 301 301 302 302 303 303 303 303 302 302 302 302 301 301 300 299 298 298 297 296 295 295 294 293 291 290 289 288 286 284 282 278 275 272 269 267 266 265 263 263 263 265 264 262 261 261 262 263 264 264 262 259 258 257 258 258 257 257 256 255 255 256 255 254 254 252 250 247 244 243 243 244 244 244 244 243 243 243 243 243 242 242 242 243
301 301 301 302 303 303 303 303 303 303 303 302 302 301 300 299 299 298 298 297 297 296 295 295 294 293 292 291 290 288 286 284 280 277 273 268 265 263 263 261 260 259 260 261 261 260 260 260 260 261 263 263 261 259 258 258 259 258 257 256 255 255 255 254 253 254 254 253 250 247 244 243 243 244 245 245 245 244 244 243 243 242 241 241 241
301 302 303 303 304 304 304 304 304 303 303 302 301 300 300 300 300 299 298 297 297 296 295 295 294 293 292 292 291 289 287 285 282 278 274 270 265 261 259 259 259 258 257 257 257 258 258 258 258 259 260 262 262 260 258 258 259 259 257 256 255 254 253 252 252 252 253 253 252 249 246 243 243 243 243 245 245 245 245 245 244 244 242 241 241
303 304 304 304 305 305 305 304 304 304 303 302 302 302 301 301 300 299 299 298 297 296 296 295 294 293 293 292 291 289 288 286 284 281 277 272 267 261 257 255 256 257 257 256 255 255 256 256 257 258 259 260 261 262 260 258 259 260 258 256 255 254 252 252 251 250 250 251 251 251 249 246 244 243 243 243 244 245 245 246 246 246 244 243 242
304 305 305 306 306 306 305 305 305 305 304 304 304 303 303 302 302 301 300 299 297 296 295 294 294 293 293 292 291 290 289 288 286 284 281 277 271 264 258 254 251 252 254 255 255 254 254 254 255 256 257 258 259 261 262 260 259 259 258 256 256 255 253 252 251 249 249 249 249 250 250 248 246 245 244 243 244 244 245 246 246 246 245 244 243
306 307 307 307 307 307 307 307 306 306 307 307 306 306 305 304 303 301 300 298 297 296 296 296 295 295 294 293 292 291 290 289 288 286 284 280 276 269 262 255 250 248 249 252 253 254 253 253 254 255 256 257 258 260 261 260 259 259 258 256 256 257 255 253 251 250 249 248 248 249 249 249 247 246 245 244 244 244 245 245 246 246 246 245 244
308 309 309 309 309 309 309 309 310 311 311 310 309 307 306 304 303 302 300 300 299 299 298 298 297 296 296 296 295 293 291 289 287 286 284 282 278 273 265 258 251 247 246 247 250 252 253 252 253 254 255 256 257 258 258 258 258 258 258 258 258 259 258 255 252 251 250 248 248 248 248 249 248 247 245 244 243 243 244 245 246 246 246 246 245
311 311 311 311 311 312 313 314 315 314 313 311 309 308 307 306 305 304 303 302 301 301 300 300 300 300 300 299 297 295 293 291 289 287 286 285 282 277 269 262 255 248 244 244 245 248 250 251 252 253 254 255 256 256 256 256 256 256 257 258 259 258 258 256 254 252 251 250 249 249 248 248 248 246 245 243 242 242 243 244 245 245 246 246 246
312 312 313 313 314 316 318 319 317 315 313 311 311 310 309 308 307 306 305 305 304 304 304 304 304 303 302 301 299 298 295 293 291 290 288 287 286 281 273 265 258 252 246 244 244 246 248 250 251 252 253 253 254 255 255 255 254 253 253 255 257 258 258 258 257 254 253 253 253 251 250 248 247 246 245 243 242 242 242 243 243 244 245 245 245
314 314 315 316 319 322 321 319 317 315 315 314 313 312 311 310 309 308 308 308 307 307 307 306 306 305 305 304 303 301 299 296 294 293 291 289 287 285 278 269 260 253 246 242 242 244 246 247 248 249 251 251 252 252 252 252 252 252 252 252 255 257 258 259 258 256 254 256 256 255 252 250 248 247 246 244 242 242 242 242 243 243 244 244 244
315 315 318 321 324 323 321 319 319 319 318 316 315 314 314 313 311 310 310 311 311 311 310 310 310 310 309 308 308 307 305 303 303 301 298 295 292 289 282 273 263 255 247 240 237 238 242 244 245 246 248 250 251 251 251 251 251 252 252 252 253 255 257 258 258 256 254 256 259 258 255 253 251 249 247 245 243 242 242 242 243 243 243 244 244
315 318 322 325 325 323 322 323 323 321 319 318 317 316 315 315 315 313 313 313 313 314 315 315 314 313 311 310 310 309 308 308 308 306 304 300 297 292 285 276 266 255 247 240 236 236 239 241 243 244 246 248 249 250 250 250 250 251 251 251 251 253 255 256 257 256 254 256 260 262 259 256 254 252 250 248 245 243 242 242 243 243 243 243 243
317 321 325 326 325 324 325 326 326 324 321 319 319 317 318 319 319 318 315 314 314 316 318 318 317 315 312 311 309 308 308 308 308 306 304 301 297 294 288 280 270 257 247 240 236 235 237 240 242 243 244 245 247 248 249 249 249 250 251 251 251 252 253 255 255 255 254 256 260 263 262 259 256 253 251 249 247 245 244 243 243 243 243 242 242
319 324 327 326 325 326 328 330 329 326 321 320 320 321 321 321 320 319 318 317 318 321 323 321 319 317 314 312 311 309 308 308 308 308 307 303 300 297 292 285 276 264 253 244 238 235 235 237 240 242 244 245 246 247 248 248 249 249 250 251 251 250 252 253 254 254 255 256 259 262 263 261 258 255 252 249 247 246 246 245 244 243 243 242 241
322 326 327 325 326 328 330 333 333 329 322 321 322 324 325 325 322 320 320 319 322 326 328 325 322 320 318 316 314 312 310 309 310 310 309 305 303 302 299 293 285 273 260 249 242 237 235 235 238 241 244 247 248 248 247 247 247 248 249 250 251 250 250 251 252 252 254 256 258 261 263 263 260 257 253 249 248 247 246 245 244 243 242 241 240
323 327 326 325 327 330 332 335 336 333 326 323 323 325 327 328 326 324 322 320 322 327 331 330 328 326 324 322 320 318 316 314 312 311 310 307 307 308 307 301 293 283 269 257 249 243 240 238 239 240 242 245 249 250 248 246 246 246 247 248 249 248 248 249 249 249 253 255 257 259 262 263 261 257 253 250 248 246 245 244 242 241 240 239 238
325 327 326 326 329 331 333 337 339 337 331 326 324 325 328 330 330 330 328 326 325 328 332 334 334 332 331 329 327 325 323 320 317 315 313 312 313 312 307 302 299 294 282 269 260 253 247 243 242 242 242 243 246 249 249 246 245 244 245 245 246 245 246 247 248 249 252 254 256 258 261 261 259 256 253 249 247 245 244 243 241 240 239 238 237
326 327 326 328 331 333 335 338 340 340 336 331 327 327 330 332 333 334 333 333 332 332 334 335 336 337 338 336 333 331 329 325 321 319 316 314 312 306 298 297 299 297 291 283 274 264 255 249 245 244 244 245 246 247 248 246 243 242 243 243 243 243 245 247 248 250 252 254 255 256 257 257 256 254 252 250 247 244 243 242 240 239 238 236 235
327 327 326 329 332 333 336 339 341 342 341 338 333 331 331 332 333 335 336 336 336 336 337 338 338 338 341 342 339 337 336 332 326 321 317 311 304 292 283 286 293 295 294 293 285 273 262 253 247 244 243 245 247 248 248 246 242 240 241 241 241 242 243 245 248 251 252 252 253 253 254 254 253 251 250 248 245 242 241 239 236 234 234 233 231
327 326 327 330 333 334 337 340 343 344 345 343 339 336 333 332 333 335 337 338 339 339 340 341 341 339 341 344 345 343 342 339 333 327 323 317 309 298 287 284 287 291 292 294 290 276 261 247 238 237 241 244 247 248 249 247 241 238 238 240 240 240 242 245 248 249 247 246 247 248 250 250 249 246 245 243 240 238 238 236 232 228 227 226 224
326 325 328 331 333 335 337 341 344 346 348 347 346 342 339 336 335 336 337 339 341 342 341 341 342 341 340 342 346 348 348 346 341 336 331 325 318 308 295 289 290 295 299 302 296 273 249 233 230 234 241 248 250 250 249 246 241 237 237 238 239 242 244 247 248 246 242 240 241 242 243 242 240 237 236 235 234 234 234 233 229 226 224 223 221
324 325 328 331 333 335 338 341 345 348 350 350 350 348 345 343 341 340 341 341 343 345 345 343 343 343 340 340 342 346 349 351 350 345 340 335 328 315 299 294 304 311 315 321 318 284 242 236 243 249 255 258 256 254 251 246 242 238 237 239 243 246 247 248 245 240 235 234 233 233 233 230 228 226 226 227 229 230 230 228 224 221 220 219 219
322 324 328 331 333 336 339 342 346 350 352 353 353 352 351 350 348 348 348 347 347 349 349 346 345 345 343 340 338 338 340 344 347 348 348 346 341 330 304 286 314 319 318 333 339 320 288 274 269 264 259 256 255 255 253 247 241 239 241 246 248 247 245 242 237 229 225 224 223 223 222 221 220 219 219 221 224 224 223 220 217 214 214 216 218
320 323 328 331 333 336 340 342 346 351 354 356 356 356 356 356 355 355 355 355 353 352 352 351 349 348 345 342 339 335 333 333 337 343 346 347 346 340 320 269 273 296 303 317 324 307 284 269 260 257 256 256 256 258 256 250 248 248 248 246 242 238 236 234 227 219 216 215 215 214 213 212 212 211 211 214 218 220 219 216 213 212 214 217 220
318 322 327 330 333 337 340 342 347 352 356 358 1 2 1 1 1 1 2 2 1 359 357 356 355 353 350 347 344 341 337 334 334 337 339 339 340 341 333 307 274 261 266 277 274 262 256 255 255 258 264 265 264 263 260 256 251 245 235 227 226 228 229 225 217 211 209 208 207 206 205 204 203 203 204 207 211 214 214 213 212 212 214 216 218
318 323 327 330 333 338 340 343 346 351 356 1 4 5 6 7 7 7 7 7 7 6 4 2 2 2 359 356 354 351 347 342 338 336 334 332 330 332 334 329 312 286 273 274 272 266 264 265 267 273 277 277 273 267 258 242 226 215 211 213 219 222 221 217 210 205 203 203 202 201 199 197 195 195 197 202 207 209 209 210 211 212 213 214 215
317 322 326 328 332 337 340 343 346 350 356 1 5 8 10 11 11 12 12 12 12 12 11 9 9 9 8 7 4 0 356 352 348 344 340 335 331 328 327 327 325 313 295 281 275 277 281 286 291 293 291 287 276 241 207 195 194 199 206 213 216 214 210 206 202 199 199 199 197 195 193 190 188 191 196 202 206 207 208 209 210 210 211 212 213
317 321 324 326 331 335 339 343 347 350 354 359 3 7 11 13 14 15 15 15 15 15 14 13 12 11 10 10 8 3 358 355 353 350 346 341 338 335 329 323 318 313 305 295 289 289 295 302 305 303 292 237 177 176 177 179 185 196 206 212 212 207 202 198 197 197 196 194 191 189 186 183 185 192 200 203 205 206 206 206 207 208 209 210 212
317 320 322 325 330 334 338 343 347 350 354 358 2 6 10 13 15 17 17 17 17 16 15 14 13 13 12 12 10 6 2 358 356 355 353 350 347 345 341 335 326 317 311 306 300 297 298 299 295 257 175 164 164 168 172 176 183 194 204 210 210 206 202 199 198 197 194 190 186 182 179 180 187 195 199 202 203 204 204 203 204 206 209 212 215
317 320 322 325 329 333 337 342 347 351 354 357 0 4 8 12 14 16 18 18 18 17 16 15 14 14 15 15 14 13 11 8 7 9 9 7 5 3 360 355 348 338 329 320 311 302 294 279 239 198 183 176 173 172 173 176 182 191 203 212 213 211 209 206 202 197 192 189 183 176 173 180 190 196 199 200 200 200 200 202 204 207 210 214 218
317 319 322 325 329 332 336 341 346 350 354 357 -0 3 6 10 13 15 17 17 17 16 16 15 14 14 15 16 16 16 14 12 12 16 20 20 19 18 17 14 10 3 356 347 333 316 286 236 209 195 186 178 172 167 163 158 155 164 192 209 214 214 213 209 202 193 188 183 177 171 172 181 190 194 197 197 196 197 198 201 205 208 212 215 218
317 320 323 327 329 332 336 340 345 350 354 358 0 3 5 8 11 13 15 16 16 14 13 13 13 13 13 14 15 15 14 11 11 15 22 29 32 33 34 35 34 32 31 30 29 32 58 142 163 162 158 152 143 130 114 102 108 137 177 195 203 207 208 205 197 189 183 178 173 171 176 184 188 190 191 191 193 196 199 202 206 210 213 216 219
318 321 325 329 330 333 335 339 343 347 352 356 360 3 5 7 9 11 13 14 15 13 12 11 10 10 9 10 12 13 13 12 10 11 19 32 43 48 51 53 54 55 57 60 63 69 77 85 94 101 102 99 94 91 88 98 119 137 151 163 174 182 186 186 183 179 174 170 168 170 175 179 181 183 186 189 193 198 202 205 209 211 213 216 218
Height
3044 3042 3041 3040 3038 3037 3035 3034 3032 3030 3029 3028 3026 3025 3024 3022 3021 3020 3019 3017 3016 3016 3015 3015 3015 3016 3016 3016 3016 3015 3014 3012 3010 3009 3008 3008 3008 3007 3006 3006 3005 3005 3005 3005 3005 3004 3004 3005 3006 3006 3006 3006 3007 3009 3010 3012 3013 3014 3015 3016 3016 3017 3018 3020 3021 3023 3026 3029 3031 3033 3035 3036 3037 3039 3040 3041 3042 3043 3044 3044 3045 3046 3046 3046 3046
3039 3037 3036 3034 3033 3032 3031 3029 3028 3026 3025 3023 3021 3020 3018 3017 3016 3015 3013 3012 3010 3009 3008 3007 3007 3006 3006 3007 3007 3008 3007 3006 3005 3004 3003 3003 3003 3002 3002 3001 3001 3000 2999 2999 2999 2999 2998 2998 2999 2999 2999 3000 3001 3002 3003 3005 3006 3007 3009 3009 3010 3011 3012 3013 3015 3016 3018 3021 3024 3027 3028 3030 3032 3034 3035 3036 3037 3037 3038 3039 3040 3041 3041 3041 3041
3032 3031 3030 3029 3028 3027 3025 3024 3023 3022 3020 3018 3017 3015 3013 3012 3010 3009 3008 3007 3006 3005 3004 3003 3002 3000 2999 2998 2998 2998 2998 2998 2998 2997 2997 2997 2997 2997 2997 2996 2996 2995 2995 2994 2993 2993 2992 2992 2992 2993 2993 2993 2995 2996 2996 2997 2998 2999 3001 3003 3003 3005 3006 3007 3008 3010 3011 3013 3016 3019 3021 3023 3026 3028 3030 3030 3030 3031 3032 3034 3035 3036 3036 3036 3037
3026 3025 3024 3023 3022 3021 3020 3019 3017 3016 3014 3012 3011 3009 3008 3006 3005 3004 3002 3001 3000 3000 2999 2998 2997 2995 2994 2993 2991 2990 2989 2989 2989 2989 2989 2990 2990 2991 2991 2990 2990 2990 2989 2989 2988 2987 2986 2986 2986 2986 2986 2987 2988 2989 2989 2990 2991 2992 2994 2996 2997 2998 2999 3000 3002 3003 3004 3005 3008 3011 3015 3017 3019 3021 3023 3023 3024 3025 3026 3028 3029 3030 3031 3031 3032
3020 3019 3019 3018 3017 3016 3015 3013 3012 3010 3009 3007 3005 3004 3002 3001 3000 2999 2997 2996 2995 2994 2993 2991 2990 2989 2987 2986 2985 2984 2983 2982 2982 2981 2981 2982 2982 2983 2983 2983 2983 2983 2983 2982 2982 2981 2980 2980 2980 2979 2979 2980 2982 2982 2982 2983 2985 2985 2986 2988 2989 2991 2993 2994 2995 2996 2997 2998 3000 3003 3006 3009 3010 3012 3015 3017 3018 3019 3020 3021 3023 3025 3026 3026 3027
3015 3014 3013 3012 3012 3011 3010 3009 3007 3005 3003 3001 3000 2999 2997 2996 2995 2994 2992 2991 2990 2989 2987 2986 2984 2982 2981 2979 2977 2976 2976 2975 2975 2974 2974 2973 2974 2974 2974 2975 2975 2976 2976 2976 2975 2975 2974 2974 2973 2973 2973 2974 2975 2975 2975 2976 2978 2978 2980 2981 2982 2983 2985 2987 2989 2989 2990 2991 2992 2994 2997 3000 3002 3005 3007 3010 3011 3012 3013 3014 3016 3018 3020 3021 3022
3010 3008 3008 3007 3006 3005 3004 3003 3002 3000 2998 2996 2994 2992 2990 2989 2988 2986 2985 2984 2983 2982 2980 2979 2978 2976 2975 2973 2971 2969 2968 2968 2967 2967 2966 2966 2965 2965 2966 2966 2967 2967 2968 2968 2968 2968 2968 2967 2967 2966 2966 2967 2967 2967 2968 2969 2970 2971 2973 2974 2974 2975 2976 2978 2981 2982 2983 2984 2984 2986 2989 2992 2995 2997 3000 3002 3003 3004 3005 3006 3009 3012 3014 3015 3017
3004 3003 3001 3000 2999 2998 2997 2996 2995 2994 2992 2991 2989 2986 2984 2982 2980 2978 2977 2975 2974 2972 2971 2970 2969 2968 2967 2966 2964 2963 2961 2960 2959 2958 2958 2958 2958 2957 2957 2957 2958 2959 2959 2960 2960 2960 2960 2960 2960 2960 2960 2960 2960 2960 2960 2961 2962 2963 2965 2966 2966 2966 2968 2970 2971 2973 2975 2976 2977 2978 2980 2983 2986 2989 2990 2992 2993 2995 2998 3001 3004 3006 3008 3010 3011
2999 2997 2996 2994 2992 2991 2989 2988 2987 2986 2985 2983 2982 2980 2979 2977 2974 2972 2970 2968 2966 2964 2963 2961 2960 2959 2958 2957 2956 2955 2954 2953 2952 2950 2949 2949 2949 2949 2949 2949 2949 2949 2950 2951 2951 2952 2952 2952 2952 2952 2952 2952 2952 2952 2952 2952 2953 2954 2956 2957 2957 2958 2960 2961 2962 2964 2966 2967 2969 2970 2971 2973 2976 2979 2980 2982 2985 2990 2994 2997 2998 3000 3002 3003 3004
2994 2992 2990 2988 2986 2984 2983 2981 2979 2978 2977 2975 2974 2973 2971 2970 2968 2966 2964 2961 2959 2957 2955 2954 2952 2950 2949 2948 2947 2947 2946 2946 2945 2943 2942 2940 2939 2939 2939 2939 2940 2940 2940 2941 2942 2943 2943 2943 2943 2943 2943 2944 2944 2944 2944 2944 2944 2946 2947 2947 2948 2950 2951 2953 2953 2955 2956 2958 2960 2962 2962 2963 2966 2970 2972 2976 2981 2985 2988 2989 2990 2993 2995 2995 2995
2987 2986 2984 2982 2980 2978 2976 2974 2972 2971 2969 2968 2966 2965 2963 2962 2961 2959 2957 2955 2952 2950 2948 2946 2944 2942 2940 2939 2938 2938 2937 2937 2936 2935 2934 2933 2931 2929 2928 2929 2929 2929 2930 2931 2931 2932 2933 2933 2934 2934 2934 2935 2936 2935 2936 2936 2936 2937 2937 2937 2938 2940 2942 2943 2945 2947 2947 2948 2951 2953 2954 2956 2959 2962 2965 2969 2972 2976 2979 2982 2984 2985 2986 2986 2987
2979 2977 2976 2974 2972 2970 2968 2966 2965 2963 2962 2960 2959 2957 2956 2954 2953 2951 2949 2947 2945 2942 2940 2938 2936 2934 2932 2930 2929 2928 2928 2928 2927 2926 2925 2925 2923 2921 2918 2918 2917 2918 2919 2920 2921 2922 2922 2923 2924 2925 2926 2926 2926 2926 2927 2928 2928 2927 2927 2927 2928 2930 2932 2934 2936 2938 2939 2940 2942 2943 2945 2949 2951 2952 2956 2959 2963 2967 2971 2974 2976 2977 2978 2979 2980
2972 2970 2968 2966 2964 2962 2960 2959 2957 2956 2954 2952 2950 2949 2947 2946 2944 2942 2940 2939 2936 2934 2932 2930 2927 2926 2924 2921 2920 2918 2918 2918 2918 2916 2915 2915 2914 2912 2910 2908 2907 2906 2907 2909 2910 2911 2911 2912 2913 2915 2917 2917 2916 2917 2917 2918 2918 2918 2917 2917 2918 2920 2922 2924 2926 2929 2930 2932 2933 2934 2938 2941 2942 2944 2947 2951 2955 2959 2964 2966 2968 2969 2970 2972 2974
2966 2964 2963 2960 2958 2955 2953 2951 2949 2947 2946 2944 2941 2940 2938 2936 2934 2932 2929 2927 2926 2924 2922 2920 2918 2917 2915 2912 2910 2909 2908 2909 2908 2905 2904 2904 2904 2903 2901 2899 2898 2896 2896 2897 2898 2899 2900 2901 2901 2904 2906 2907 2907 2908 2908 2907 2907 2908 2908 2908 2909 2911 2912 2913 2916 2918 2920 2922 2923 2927 2931 2932 2933 2937 2939 2941 2946 2951 2955 2958 2960 2963 2965 2967 2969
2961 2959 2957 2955 2952 2949 2947 2944 2942 2939 2937 2935 2932 2930 2928 2925 2923 2920 2917 2915 2913 2912 2910 2909 2907 2906 2904 2902 2899 2898 2899 2900 2899 2896 2894 2893 2892 2891 2890 2889 2888 2886 2886 2886 2886 2887 2888 2889 2890 2892 2894 2896 2897 2898 2898 2897 2896 2897 2898 2900 2901 2902 2902 2904 2906 2908 2909 2912 2914 2919 2923 2924 2926 2928 2929 2932 2937 2942 2945 2949 2952 2956 2958 2959 2958
2955 2952 2950 2948 2946 2943 2940 2937 2935 2932 2929 2926 2923 2920 2917 2914 2911 2908 2904 2902 2900 2898 2897 2895 2893 2892 2891 2890 2887 2885 2887 2889 2888 2886 2885 2882 2880 2878 2877 2876 2876 2875 2875 2875 2875 2875 2876 2877 2879 2881 2882 2884 2886 2888 2887 2886 2886 2886 2888 2890 2891 2892 2893 2896 2898 2897 2898 2901 2905 2909 2913 2915 2917 2919 2920 2922 2927 2931 2934 2937 2941 2944 2946 2946 2946
2949 2946 2944 2942 2939 2937 2933 2930 2927 2924 2920 2917 2913 2910 2906 2902 2899 2896 2891 2888 2886 2884 2882 2880 2879 2877 2876 2875 2873 2871 2872 2875 2876 2874 2874 2872 2870 2867 2864 2863 2862 2862 2863 2864 2864 2864 2865 2866 2867 2868 2870 2872 2875 2877 2877 2876 2875 2876 2877 2879 2881 2882 2884 2888 2889 2887 2888 2890 2893 2898 2902 2904 2906 2908 2910 2912 2916 2919 2922 2924 2929 2932 2934 2935 2936
2943 2941 2939 2936 2933 2930 2926 2923 2919 2915 2911 2907 2903 2899 2896 2892 2888 2883 2878 2874 2871 2870 2867 2864 2863 2862 2860 2859 2858 2856 2855 2859 2861 2860 2860 2860 2858 2855 2853 2850 2848 2848 2849 2851 2853 2853 2854 2855 2856 2856 2858 2861 2864 2865 2866 2865 2865 2866 2868 2869 2869 2871 2876 2880 2879 2877 2878 2879 2882 2887 2889 2891 2894 2897 2899 2902 2905 2907 2910 2913 2919 2922 2924 2926 2929
2938 2935 2933 2930 2927 2923 2919 2915 2911 2906 2902 2898 2893 2888 2884 2880 2875 2871 2867 2862 2858 2855 2853 2849 2847 2847 2845 2843 2842 2840 2838 2841 2844 2844 2844 2845 2845 2842 2840 2837 2835 2834 2836 2837 2839 2841 2842 2844 2846 2846 2847 2850 2853 2854 2855 2855 2855 2856 2858 2859 2858 2861 2868 2870 2866 2866 2869 2870 2873 2875 2876 2879 2883 2886 2889 2892 2895 2896 2900 2904 2908 2911 2914 2917 2920
2933 2930 2927 2924 2920 2916 2911 2906 2902 2897 2891 2887 2882 2877 2872 2867 2863 2859 2855 2851 2846 2843 2840 2836 2832 2831 2830 2828 2826 2824 2822 2821 2824 2825 2825 2827 2828 2828 2825 2822 2821 2821 2823 2824 2825 2827 2829 2831 2834 2836 2837 2839 2841 2843 2845 2845 2844 2845 2848 2847 2848 2854 2859 2856 2854 2857 2860 2861 2863 2865 2866 2868 2871 2874 2878 2881 2884 2887 2891 2893 2896 2900 2904 2907 2909
2927 2924 2920 2916 2912 2908 2903 2897 2892 2887 2881 2875 2871 2867 2862 2856 2852 2847 2842 2838 2834 2830 2827 2823 2818 2815 2815 2812 2809 2807 2805 2803 2802 2804 2805 2806 2809 2810 2808 2806 2807 2808 2809 2810 2812 2814 2816 2818 2821 2825 2828 2829 2831 2832 2834 2834 2834 2835 2836 2837 2840 2846 2847 2843 2844 2849 2850 2850 2853 2855 2856 2859 2860 2863 2867 2870 2873 2877 2881 2883 2885 2890 2894 2896 2898
2920 2917 2913 2909 2904 2899 2894 2888 2882 2876 2871 2865 2860 2856 2852 2846 2841 2836 2830 2825 2821 2817 2813 2809 2804 2800 2799 2797 2793 2791 2789 2787 2785 2785 2786 2786 2787 2790 2789 2790 2793 2794 2793 2795 2798 2800 2803 2807 2809 2812 2816 2819 2821 2822 2823 2824 2824 2824 2825 2828 2832 2836 2835 2833 2835 2837 2838 2840 2844 2845 2846 2849 2851 2853 2857 2860 2863 2867 2870 2873 2876 2881 2884 2886 2888
2914 2910 2906 2901 2896 2890 2884 2879 2873 2866 2861 2855 2849 2844 2840 2835 2830 2824 2818 2812 2807 2802 2798 2794 2790 2786 2785 2783 2780 2778 2776 2774 2772 2770 2770 2768 2768 2770 2771 2773 2777 2779 2777 2779 2784 2788 2791 2795 2797 2800 2804 2807 2810 2812 2813 2814 2814 2813 2815 2819 2823 2825 2825 2824 2824 2826 2828 2831 2833 2834 2837 2840 2842 2844 2847 2850 2853 2857 2860 2863 2866 2869 2873 2876 2878
2906 2902 2898 2893 2887 2881 2875 2870 2864 2858 2852 2845 2839 2833 2828 2822 2817 2811 2804 2798 2793 2788 2785 2781 2777 2774 2772 2771 2769 2767 2765 2762 2760 2758 2756 2754 2753 2753 2754 2756 2760 2763 2764 2765 2770 2774 2778 2782 2785 2789 2792 2795 2798 2801 2802 2803 2804 2803 2805 2808 2812 2814 2815 2814 2815 2817 2818 2820 2822 2826 2829 2831 2833 2835 2838 2840 2843 2846 2849 2853 2856 2859 2863 2866 2869
2899 2894 2889 2884 2878 2872 2867 2861 2855 2849 2842 2835 2828 2822 2816 2809 2803 2797 2791 2786 2781 2778 2775 2772 2768 2765 2763 2760 2759 2757 2754 2751 2748 2746 2743 2741 2740 2739 2739 2739 2743 2747 2750 2753 2757 2762 2766 2770 2774 2777 2780 2783 2786 2788 2790 2791 2793 2795 2797 2799 2801 2802 2804 2805 2806 2808 2808 2810 2814 2818 2821 2823 2825 2827 2829 2831 2833 2835 2839 2843 2846 2850 2853 2856 2859
2891 2886 2880 2875 2869 2863 2858 2852 2845 2839 2832 2825 2817 2810 2803 2796 2791 2786 2781 2777 2774 2770 2766 2763 2759 2756 2754 2751 2748 2746 2743 2739 2736 2734 2732 2730 2728 2727 2726 2727 2729 2732 2735 2739 2745 2749 2754 2758 2762 2765 2767 2770 2773 2775 2777 2780 2783 2786 2788 2789 2789 2791 2793 2795 2797 2798 2800 2803 2806 2809 2812 2814 2816 2817 2819 2820 2822 2825 2829 2832 2835 2839 2842 2846 2848
2883 2877 2872 2866 2861 2855 2848 2842 2836 2829 2821 2814 2806 2799 2793 2787 2782 2778 2775 2771 2767 2763 2759 2755 2751 2748 2745 2742 2739 2736 2733 2730 2726 2724 2722 2720 2718 2717 2716 2716 2718 2721 2724 2729 2734 2739 2743 2747 2751 2753 2755 2758 2760 2763 2766 2769 2772 2774 2777 2779 2780 2781 2783 2786 2787 2789 2792 2795 2797 2799 2802 2804 2805 2807 2809 2811 2813 2816 2819 2822 2825 2829 2832 2836 2838
2875 2870 2865 2859 2853 2847 2840 2834 2826 2818 2810 2803 2796 2790 2786 2781 2776 2772 2769 2765 2760 2756 2752 2748 2744 2740 2737 2733 2730 2727 2724 2721 2718 2716 2714 2712 2710 2708 2707 2708 2709 2711 2714 2718 2723 2728 2732 2735 2739 2741 2743 2745 2748 2751 2754 2757 2760 2763 2767 2770 2772 2774 2776 2778 2779 2780 2783 2786 2788 2790 2792 2792 2794 2796 2799 2801 2804 2807 2810 2813 2816 2819 2823 2826 2829
2868 2864 2858 2852 2846 2840 2834 2827 2818 2808 2800 2794 2789 2785 2780 2776 2771 2767 2764 2760 2755 2750 2746 2742 2737 2733 2729 2725 2722 2718 2715 2712 2709 2707 2706 2705 2703 2701 2700 2700 2702 2703 2706 2709 2712 2715 2719 2722 2726 2730 2732 2734 2736 2740 2744 2747 2751 2754 2758 2762 2764 2766 2768 2769 2770 2772 2776 2778 2780 2781 2782 2783 2785 2787 2789 2792 2794 2797 2800 2803 2806 2810 2813 2816 2819
2862 2858 2852 2846 2840 2834 2828 2819 2810 2801 2793 2788 2783 2779 2776 2772 2767 2763 2759 2755 2752 2748 2743 2738 2734 2729 2724 2720 2717 2712 2708 2705 2703 2701 2699 2698 2697 2696 2694 2694 2695 2696 2699 2703 2704 2706 2708 2711 2715 2720 2722 2724 2726 2729 2734 2738 2742 2745 2749 2753 2756 2758 2759 2760 2763 2765 2768 2770 2772 2773 2774 2775 2777 2779 2781 2783 2785 2788 2791 2794 2797 2801 2804 2808 2811
2856 2852 2846 2840 2835 2829 2822 2812 2802 2794 2788 2783 2778 2773 2770 2767 2764 2760 2756 2752 2749 2745 2741 2736 2732 2727 2722 2717 2713 2709 2705 2701 2698 2696 2693 2692 2691 2690 2689 2689 2689 2690 2692 2695 2695 2696 2699 2703 2706 2709 2713 2715 2717 2721 2725 2729 2733 2736 2740 2744 2747 2750 2751 2753 2756 2758 2760 2762 2764 2765 2766 2768 2769 2771 2773 2775 2777 2780 2783 2786 2789 2793 2796 2800 2803
2851 2845 2840 2835 2830 2824 2817 2807 2797 2789 2784 2779 2775 2769 2764 2760 2758 2756 2753 2749 2745 2741 2737 2733 2729 2724 2719 2714 2709 2705 2701 2698 2694 2691 2688 2686 2685 2684 2684 2683 2683 2685 2687 2688 2687 2687 2690 2694 2697 2701 2704 2706 2709 2713 2717 2720 2724 2727 2731 2735 2739 2742 2744 2746 2749 2751 2752 2754 2756 2757 2759 2761 2762 2764 2766 2768 2770 2773 2776 2779 2783 2786 2790 2793 2795
2846 2840 2835 2830 2826 2820 2812 2803 2793 2785 2780 2775 2771 2766 2761 2756 2751 2749 2748 2745 2742 2739 2735 2730 2725 2720 2716 2711 2706 2701 2697 2694 2690 2687 2684 2682 2680 2680 2679 2679 2679 2680 2681 2681 2680 2680 2682 2685 2689 2693 2697 2700 2702 2706 2709 2712 2715 2719 2724 2727 2731 2734 2737 2739 2742 2744 2745 2746 2748 2750 2751 2753 2755 2757 2759 2761 2764 2767 2770 2773 2777 2780 2783 2786 2788
2841 2836 2831 2827 2821 2816 2809 2800 2790 2782 2776 2771 2766 2762 2758 2754 2749 2744 2741 2739 2737 2735 2732 2728 2723 2717 2712 2707 2703 2698 2694 2691 2687 2684 2681 2678 2677 2676 2675 2675 2675 2675 2676 2675 2675 2675 2677 2680 2683 2687 2691 2693 2696 2698 2701 2704 2708 2712 2717 2720 2723 2726 2729 2732 2734 2736 2737 2739 2740 2742 2744 2746 2748 2751 2753 2755 2758 2760 2763 2766 2770 2773 2776 2779 2781
2837 2833 2828 2823 2818 2812 2805 2797 2788 2780 2773 2768 2763 2759 2755 2751 2746 2742 2738 2735 2732 2729 2727 2723 2719 2714 2709 2703 2699 2695 2691 2688 2684 2681 2679 2676 2675 2674 2673 2671 2671 2671 2672 2672 2671 2672 2673 2675 2678 2682 2685 2688 2690 2692 2695 2698 2702 2706 2710 2713 2716 2719 2722 2724 2727 2729 2731 2732 2733 2736 2738 2739 2741 2745 2748 2750 2752 2754 2757 2760 2763 2767 2770 2773 2775
2833 2829 2824 2820 2814 2809 2803 2795 2786 2778 2771 2765 2760 2755 2751 2747 2743 2739 2736 2732 2728 2725 2721 2718 2715 2711 2707 2702 2696 2692 2689 2686 2683 2680 2678 2676 2674 2673 2671 2669 2668 2668 2668 2668 2669 2669 2669 2671 2674 2678 2681 2683 2685 2687 2690 2693 2696 2700 2704 2707 2709 2712 2715 2718 2721 2723 2724 2725 2727 2729 2731 2733 2736 2739 2742 2744 2747 2749 2751 2755 2758 2761 2764 2767 2770
2829 2825 2820 2816 2811 2806 2800 2793 2785 2777 2770 2763 2757 2752 2748 2744 2740 2737 2733 2730 2726 2723 2719 2714 2710 2707 2704 2700 2695 2691 2688 2685 2682 2680 2678 2676 2674 2672 2670 2669 2668 2667 2666 2666 2666 2666 2666 2668 2672 2675 2677 2680 2682 2685 2687 2689 2691 2695 2698 2701 2703 2706 2709 2712 2714 2716 2717 2719 2721 2723 2726 2728 2730 2733 2736 2739 2741 2743 2746 2749 2752 2755 2759 2762 2765
2826 2822 2817 2812 2807 2802 2797 2790 2784 2776 2768 2762 2755 2750 2746 2742 2738 2735 2731 2728 2724 2720 2716 2712 2707 2703 2700 2697 2694 2690 2687 2684 2682 2680 2678 2676 2674 2673 2671 2669 2668 2666 2666 2665 2665 2664 2664 2666 2670 2673 2675 2678 2681 2683 2684 2685 2688 2690 2693 2695 2698 2701 2704 2706 2708 2709 2711 2713 2716 2718 2720 2723 2725 2728 2730 2733 2736 2738 2741 2744 2747 2750 2753 2756 2759
2824 2820 2815 2809 2805 2800 2794 2788 2781 2774 2767 2760 2754 2749 2744 2740 2736 2733 2729 2725 2722 2718 2714 2710 2706 2702 2698 2695 2692 2689 2686 2684 2681 2679 2677 2675 2674 2672 2671 2669 2668 2667 2666 2665 2664 2663 2664 2666 2669 2672 2674 2677 2679 2680 2681 2682 2684 2686 2688 2690 2693 2696 2698 2700 2702 2704 2706 2708 2711 2713 2716 2718 2720 2723 2725 2728 2731 2733 2736 2739 2742 2745 2748 2752 2756
2821 2817 2812 2807 2804 2799 2793 2786 2780 2772 2765 2759 2753 2748 2744 2739 2735 2731 2727 2723 2720 2716 2712 2708 2705 2701 2697 2694 2691 2688 2685 2683 2680 2678 2675 2673 2672 2671 2670 2669 2669 2668 2667 2666 2665 2665 2666 2668 2670 2671 2673 2675 2677 2677 2678 2679 2680 2682 2684 2686 2689 2692 2694 2695 2697 2699 2701 2704 2706 2709 2711 2714 2716 2718 2721 2723 2726 2729 2732 2735 2738 2742 2745 2749 2753
2818 2814 2809 2805 2801 2797 2792 2785 2779 2771 2765 2758 2752 2748 2743 2738 2734 2730 2726 2722 2718 2715 2711 2708 2704 2701 2697 2694 2691 2688 2685 2682 2680 2678 2675 2673 2671 2670 2670 2669 2669 2669 2668 2667 2667 2668 2668 2669 2670 2671 2672 2673 2673 2673 2674 2675 2677 2679 2681 2684 2686 2688 2689 2691 2692 2695 2697 2700 2702 2705 2707 2710 2712 2714 2717 2720 2723 2725 2728 2731 2734 2738 2742 2746 2749
2814 2810 2806 2802 2799 2794 2790 2784 2778 2771 2765 2759 2753 2747 2742 2737 2733 2729 2725 2721 2717 2713 2710 2707 2704 2701 2698 2695 2692 2689 2686 2683 2680 2677 2675 2673 2672 2670 2670 2669 2669 2669 2668 2667 2667 2668 2668 2669 2669 2670 2670 2670 2671 2671 2672 2673 2675 2677 2679 2681 2683 2684 2686 2687 2689 2691 2694 2696 2699 2701 2704 2706 2709 2711 2713 2716 2720 2722 2725 2728 2731 2735 2738 2742 2745
2811 2806 2802 2799 2796 2791 2787 2782 2777 2771 2765 2759 2753 2747 2742 2737 2733 2728 2724 2720 2716 2712 2709 2706 2703 2700 2697 2694 2691 2689 2686 2683 2680 2677 2675 2673 2672 2671 2670 2669 2669 2668 2668 2668 2667 2667 2667 2667 2668 2668 2668 2669 2669 2670 2671 2672 2674 2676 2677 2678 2680 2681 2682 2684 2686 2688 2691 2693 2695 2697 2700 2702 2705 2707 2710 2713 2717 2720 2722 2725 2728 2731 2735 2739 2742
2807 2803 2799 2797 2793 2789 2785 2780 2776 2770 2765 2759 2753 2748 2743 2738 2733 2729 2724 2720 2716 2712 2709 2705 2702 2699 2696 2694 2691 2688 2686 2683 2680 2677 2675 2673 2671 2670 2670 2669 2668 2668 2668 2668 2667 2667 2666 2666 2667 2667 2668 2668 2669 2669 2670 2671 2673 2674 2674 2675 2677 2678 2680 2681 2683 2685 2688 2690 2692 2694 2697 2699 2702 2705 2708 2711 2714 2717 2720 2722 2726 2729 2733 2736 2740
2803 2800 2797 2794 2791 2787 2784 2780 2775 2770 2765 2760 2755 2749 2744 2739 2734 2729 2725 2721 2717 2713 2709 2705 2702 2699 2696 2693 2691 2688 2686 2683 2681 2678 2676 2674 2672 2670 2669 2668 2668 2667 2667 2667 2666 2666 2666 2667 2667 2667 2667 2667 2668 2668 2669 2670 2671 2672 2673 2674 2675 2676 2677 2679 2681 2683 2685 2687 2689 2692 2695 2698 2701 2704 2707 2709 2712 2716 2718 2721 2725 2728 2731 2735 2738
2800 2796 2794 2792 2789 2785 2782 2778 2774 2769 2764 2759 2755 2750 2745 2740 2735 2731 2726 2722 2718 2714 2710 2707 2703 2700 2697 2694 2691 2689 2686 2684 2682 2679 2677 2675 2673 2671 2670 2669 2668 2667 2666 2666 2666 2666 2666 2667 2667 2667 2667 2667 2667 2668 2669 2669 2670 2671 2672 2673 2673 2675 2676 2677 2679 2681 2683 2685 2688 2691 2694 2697 2700 2703 2706 2708 2711 2714 2717 2720 2724 2727 2730 2733 2736
2796 2793 2791 2789 2786 2783 2780 2777 2773 2768 2764 2759 2755 2750 2746 2741 2737 2732 2728 2723 2719 2716 2712 2708 2705 2702 2698 2695 2692 2690 2688 2685 2683 2680 2678 2676 2674 2672 2671 2669 2668 2667 2667 2666 2666 2666 2666 2666 2666 2666 2666 2666 2666 2667 2668 2668 2669 2670 2671 2672 2673 2674 2675 2677 2679 2681 2683 2685 2687 2690 2693 2697 2699 2702 2704 2707 2710 2713 2716 2719 2722 2726 2729 2732 2734
2793 2791 2788 2786 2783 2781 2778 2775 2771 2767 2763 2759 2755 2750 2746 2742 2738 2733 2729 2725 2722 2718 2714 2711 2707 2704 2701 2697 2694 2692 2689 2687 2685 2682 2679 2677 2675 2673 2671 2670 2669 2668 2668 2667 2666 2666 2666 2666 2666 2665 2665 2665 2665 2666 2666 2668 2669 2670 2671 2673 2674 2675 2676 2678 2679 2681 2683 2684 2687 2690 2693 2696 2699 2702 2704 2707 2710 2713 2716 2719 2722 2725 2727 2730 2733
2790 2788 2786 2783 2781 2779 2776 2773 2770 2766 2763 2759 2755 2751 2747 2743 2738 2735 2731 2727 2723 2720 2717 2713 2710 2707 2704 2700 2697 2694 2692 2690 2687 2684 2681 2679 2677 2675 2673 2672 2671 2670 2669 2668 2668 2667 2667 2667 2667 2667 2666 2666 2666 2667 2668 2669 2671 2672 2673 2674 2675 2676 2677 2678 2680 2681 2683 2685 2687 2690 2693 2696 2699 2702 2704 2707 2710 2712 2715 2718 2721 2724 2726 2729 2731
2787 2785 2783 2781 2779 2776 2774 2771 2768 2765 2762 2758 2755 2751 2747 2744 2740 2736 2732 2729 2725 2722 2719 2716 2713 2710 2707 2703 2700 2697 2695 2693 2690 2687 2684 2682 2679 2678 2676 2675 2674 2673 2672 2671 2670 2670 2669 2669 2669 2669 2670 2670 2670 2671 2671 2672 2673 2673 2674 2675 2676 2677 2678 2679 2681 2682 2684 2686 2688 2691 2694 2696 2699 2702 2704 2707 2710 2712 2715 2718 2720 2723 2725 2728 2730
2784 2782 2780 2778 2776 2774 2772 2769 2767 2764 2761 2758 2755 2751 2748 2744 2741 2737 2734 2730 2727 2724 2721 2718 2715 2712 2709 2707 2704 2701 2698 2696 2693 2691 2688 2685 2683 2681 2680 2678 2677 2676 2675 2674 2673 2673 2672 2672 2672 2672 2672 2672 2673 2673 2673 2673 2674 2674 2675 2676 2676 2678 2679 2681 2682 2684 2686 2688 2690 2693 2695 2698 2700 2702 2705 2707 2710 2712 2715 2717 2720 2722 2724 2726 2728